Showing default

SES 15, 42709

Orbit data source: Space-Track

SES 15, 42709 is a payload satellite owned by SES Sat. Leasing (LU) in GEO that was launched on Thu, 18 May 2017 UTC via a SOYUZ-ST-A launch vehicle from the French Guiana (FRGUI). Payload-class satellites include a variety of spacecraft equipped with specific instruments for various scientific and technological missions. These include communications satellites like Starlink; space stations such as the ISS; scientific satellites like the Hubble; Earth observation satellites from companies like Planet Labs, Umbra, and HawkEye 360; GPS; miniature CubeSats for education and research; and military/defense satellites.

Loading next visibility...
Identifier
42709, 2017-026A
Orbit
GEO
Country
Flag of LULU / SES
Related business
Manufacturer
Boeing/ES
Mission
Operational Commercial Communications
Bus & Motor
BSS-702SP, R-4D?
Mass
2,302 kg wet, ~2,000 kg dry
Launch date (UTC)
2017-05-18 (9 years ago)
Launch vehicle
SOYUZ-ST-A
Launch site
French Guiana (FRGUI)
Object type
Payload
Rocket body
Debris
Shape & HBR
Box + 2 Pan, 20.0 m
Radar Cross Section
34.404 m², Large (>1 m²)

Expand to show TLE details & history
Last TLE update: 17 hours ago

TLE from 17 hours ago
0 SES 15
1 42709U 17026A   26039.66843093  .00000067  00000-0  00000-0 0  9990
2 42709   0.0348 286.3085 0000694  59.7910 264.0999  1.00270020  6143
Epoch: 2026-02-08T16:02Z
TLE epoch observation values (Epoch: 2026-02-08T16:02:32.432Z)
Latitude
-0.01364°
Longitude
-129.19081°
Altitude
35,786.872 km
Speed
3.075 km/s
True Right ascension
16h 40m 52s
True Declination
0° 00' 49"
Sunlit
Object was in daylight at epoch
Visualization orbit readout
Latitude
Unknown
Longitude
Unknown
Altitude
Unknown
Speed
Unknown
Apparent Right ascension
Unknown
Apparent Declination
Unknown
Sunlit
N/A
Visualization observer readout
Local Sidereal Time
11:34:39
Azimuth
Unknown
Elevation
Unknown
Doppler factor
Unknown
Orbital elements
Apogee altitude
35,791.086 km
Perigee altitude
35,785.234 km
Semi-major axis
42,166.297 km
Eccentricity
0.00007
Inclination
0.0348°
RAAN
286.3085°
Arg. of periapsis
59.791°
True anomaly
264.09199°
Mean anomaly
264.0999°
Eccentric anomaly
264.09594°
Mean motion
0.25067 °/min
Orbital period
1,436.18 mins
BSTAR
0
Loading maneuver chart data...
Computing Atmospheric mass density...
Loading historical data...
Loading historical data...
Loading historical data...
Loading historical data...
Loading historical data...
Loading historical data...
Loading historical data...
Other satellites on launch #26 in the year 2017 (2017-05-18 UTC)

Documentation

Showing up to 5 results
|